QPF
0.26 0.24 0.21 0.16 0.09 0.05 0.05 0.03 0.02 0.01 0.01 0.01 0.00 0.00 0.00 0.00 0.00 0.00 0.00 0.00 0.00 0.00 0.00 0.00 0.00 0.00 0.00 0.00 0.00 0.00 0.00 0.00 0.00 0.00 0.00 0.00 0.00 0.00 0.01 0.01 0.01 0.02 0.03
0.21 0.18 0.16 0.12 0.10 0.08 0.04 0.02 0.01 0.00 0.00 0.00 0.00 0.00 0.00 0.00 0.00 0.00 0.00 0.00 0.00 0.00 0.00 0.00 0.00 0.00 0.00 0.00 0.00 0.00 0.00 0.00 0.00 0.00 0.00 0.00 0.00 0.00 0.01 0.02 0.02 0.02 0.04
0.14 0.12 0.10 0.10 0.09 0.06 0.03 0.01 0.01 0.00 0.00 0.00 0.00 0.00 0.00 0.00 0.00 0.00 0.00 0.00 0.00 0.00 0.00 0.00 0.00 0.00 0.00 0.00 0.00 0.00 0.00 0.00 0.00 0.00 0.00 0.00 0.00 0.00 0.00 0.01 0.01 0.02 0.02
0.11 0.10 0.09 0.07 0.04 0.02 0.01 0.01 0.00 0.00 0.00 0.00 0.00 0.00 0.00 0.00 0.00 0.00 0.00 0.00 0.00 0.00 0.00 0.00 0.00 0.00 0.00 0.00 0.00 0.00 0.00 0.00 0.00 0.00 0.00 0.00 0.00 0.00 0.00 0.00 0.01 0.01 0.01
0.07 0.07 0.06 0.03 0.02 0.01 0.00 0.00 0.00 0.00 0.00 0.00 0.00 0.00 0.00 0.00 0.00 0.00 0.00 0.00 0.00 0.00 0.00 0.00 0.00 0.00 0.00 0.00 0.00 0.00 0.00 0.00 0.00 0.00 0.00 0.00 0.00 0.00 0.00 0.00 0.00 0.00 0.00
0.03 0.04 0.03 0.02 0.01 0.01 0.01 0.00 0.00 0.00 0.00 0.00 0.00 0.00 0.00 0.00 0.00 0.00 0.00 0.00 0.00 0.00 0.00 0.00 0.00 0.00 0.00 0.00 0.00 0.00 0.00 0.00 0.00 0.00 0.00 0.00 0.00 0.00 0.00 0.00 0.00 0.00 0.00
0.01 0.01 0.01 0.01 0.01 0.01 0.00 0.00 0.00 0.01 0.01 0.00 0.00 0.00 0.00 0.00 0.00 0.00 0.00 0.00 0.00 0.00 0.00 0.00 0.00 0.00 0.00 0.00 0.00 0.00 0.00 0.00 0.00 0.00 0.00 0.00 0.00 0.00 0.00 0.00 0.00 0.00 0.00
0.00 0.00 0.00 0.00 0.00 0.00 0.00 0.00 0.00 0.00 0.00 0.00 0.00 0.00 0.00 0.00 0.00 0.00 0.00 0.00 0.00 0.00 0.00 0.00 0.00 0.00 0.00 0.00 0.00 0.00 0.00 0.00 0.00 0.00 0.00 0.00 0.00 0.00 0.00 0.00 0.00 0.00 0.00
0.00 0.00 0.00 0.00 0.00 0.00 0.00 0.00 0.00 0.00 0.00 0.00 0.00 0.00 0.00 0.00 0.00 0.00 0.00 0.00 0.00 0.00 0.00 0.00 0.00 0.00 0.00 0.00 0.00 0.00 0.00 0.00 0.00 0.00 0.00 0.00 0.00 0.00 0.00 0.00 0.00 0.00 0.00
0.00 0.00 0.00 0.00 0.00 0.00 0.00 0.00 0.00 0.00 0.00 0.00 0.00 0.00 0.00 0.00 0.00 0.00 0.00 0.00 0.00 0.00 0.00 0.00 0.00 0.00 0.00 0.00 0.00 0.00 0.00 0.00 0.00 0.00 0.00 0.00 0.00 0.00 0.00 0.00 0.00 0.00 0.00
0.00 0.00 0.00 0.00 0.00 0.00 0.00 0.00 0.00 0.00 0.00 0.00 0.00 0.00 0.00 0.00 0.00 0.00 0.00 0.00 0.00 0.00 0.00 0.00 0.00 0.00 0.00 0.00 0.00 0.00 0.00 0.00 0.00 0.00 0.00 0.00 0.00 0.00 0.00 0.00 0.00 0.00 0.00
0.00 0.00 0.00 0.00 0.00 0.00 0.00 0.00 0.00 0.00 0.00 0.00 0.00 0.00 0.00 0.00 0.00 0.00 0.00 0.00 0.00 0.00 0.00 0.00 0.00 0.00 0.00 0.00 0.00 0.00 0.00 0.00 0.00 0.00 0.00 0.00 0.00 0.00 0.00 0.00 0.00 0.00 0.00
0.00 0.00 0.00 0.00 0.00 0.00 0.00 0.00 0.00 0.00 0.00 0.00 0.00 0.00 0.00 0.00 0.00 0.00 0.00 0.00 0.00 0.00 0.00 0.00 0.00 0.00 0.00 0.00 0.00 0.00 0.00 0.00 0.00 0.00 0.00 0.00 0.00 0.00 0.00 0.00 0.00 0.00 0.00
0.00 0.00 0.00 0.00 0.00 0.00 0.00 0.00 0.00 0.00 0.00 0.00 0.00 0.00 0.00 0.00 0.00 0.00 0.00 0.00 0.00 0.00 0.00 0.00 0.00 0.00 0.00 0.00 0.00 0.00 0.00 0.00 0.00 0.00 0.00 0.00 0.00 0.00 0.00 0.00 0.01 0.00 0.00
0.00 0.00 0.00 0.00 0.00 0.00 0.00 0.00 0.00 0.00 0.00 0.00 0.00 0.00 0.00 0.00 0.00 0.00 0.00 0.00 0.00 0.00 0.00 0.00 0.00 0.00 0.00 0.00 0.00 0.00 0.00 0.00 0.00 0.00 0.00 0.00 0.00 0.00 0.00 0.00 0.00 0.00 0.00
0.00 0.00 0.00 0.00 0.00 0.00 0.00 0.00 0.00 0.00 0.00 0.00 0.00 0.00 0.00 0.00 0.00 0.00 0.00 0.00 0.00 0.00 0.00 0.00 0.00 0.00 0.00 0.00 0.00 0.00 0.00 0.00 0.00 0.00 0.00 0.00 0.00 0.00 0.00 0.00 0.00 0.00 0.00
0.00 0.00 0.00 0.00 0.00 0.00 0.00 0.00 0.00 0.00 0.00 0.00 0.00 0.00 0.00 0.00 0.00 0.00 0.00 0.00 0.00 0.00 0.00 0.00 0.00 0.00 0.00 0.00 0.00 0.00 0.00 0.00 0.00 0.00 0.00 0.00 0.00 0.00 0.00 0.00 0.00 0.00 0.00
0.00 0.00 0.00 0.00 0.00 0.00 0.00 0.00 0.00 0.00 0.00 0.00 0.00 0.00 0.00 0.00 0.00 0.00 0.00 0.00 0.00 0.00 0.00 0.00 0.00 0.00 0.00 0.00 0.00 0.00 0.00 0.00 0.00 0.00 0.00 0.00 0.00 0.00 0.00 0.00 0.00 0.00 0.00
0.00 0.00 0.00 0.00 0.00 0.00 0.00 0.00 0.00 0.00 0.00 0.00 0.00 0.00 0.00 0.00 0.00 0.00 0.00 0.00 0.00 0.00 0.00 0.00 0.00 0.00 0.00 0.00 0.00 0.00 0.00 0.00 0.00 0.00 0.00 0.00 0.00 0.00 0.00 0.00 0.00 0.00 0.00
0.01 0.00 0.01 0.01 0.01 0.01 0.00 0.00 0.01 0.01 0.01 0.01 0.01 0.01 0.01 0.00 0.00 0.00 0.00 0.00 0.00 0.00 0.00 0.00 0.00 0.00 0.00 0.00 0.00 0.00 0.00 0.00 0.00 0.00 0.00 0.00 0.00 0.00 0.00 0.00 0.00 0.00 0.00
0.01 0.01 0.01 0.00 0.00 0.00 0.00 0.01 0.01 0.02 0.02 0.02 0.01 0.01 0.01 0.01 0.00 0.00 0.00 0.00 0.00 0.01 0.00 0.00 0.00 0.00 0.00 0.00 0.00 0.01 0.01 0.00 0.00 0.00 0.00 0.00 0.00 0.00 0.00 0.00 0.00 0.00 0.00
0.01 0.01 0.01 0.01 0.01 0.01 0.01 0.01 0.02 0.02 0.03 0.02 0.01 0.01 0.01 0.01 0.01 0.01 0.01 0.01 0.01 0.01 0.01 0.01 0.00 0.00 0.00 0.00 0.01 0.01 0.01 0.01 0.01 0.00 0.00 0.00 0.00 0.00 0.00 0.00 0.00 0.00 0.00
0.01 0.01 0.01 0.01 0.01 0.02 0.02 0.02 0.03 0.03 0.03 0.03 0.02 0.02 0.02 0.02 0.02 0.02 0.01 0.01 0.01 0.01 0.01 0.01 0.01 0.01 0.01 0.01 0.01 0.01 0.01 0.01 0.01 0.00 0.00 0.00 0.00 0.00 0.00 0.00 0.00 0.00 0.00
0.01 0.01 0.01 0.01 0.01 0.02 0.02 0.02 0.03 0.04 0.04 0.04 0.04 0.04 0.04 0.03 0.02 0.02 0.01 0.01 0.01 0.01 0.02 0.03 0.03 0.02 0.02 0.02 0.01 0.01 0.01 0.00 0.00 0.00 0.00 0.00 0.00 0.00 0.00 0.00 0.00 0.00 0.00
0.01 0.01 0.01 0.02 0.02 0.02 0.03 0.03 0.03 0.03 0.04 0.05 0.05 0.04 0.04 0.03 0.02 0.02 0.02 0.02 0.01 0.02 0.03 0.04 0.04 0.04 0.03 0.02 0.02 0.01 0.01 0.01 0.00 0.00 0.00 0.00 0.00 0.00 0.00 0.00 0.00 0.00 0.00
0.00 0.01 0.01 0.01 0.01 0.02 0.03 0.02 0.02 0.02 0.04 0.05 0.05 0.04 0.03 0.03 0.02 0.02 0.02 0.02 0.03 0.03 0.05 0.05 0.05 0.04 0.03 0.03 0.03 0.02 0.01 0.01 0.00 0.00 0.00 0.00 0.00 0.00 0.00 0.00 0.00 0.01 0.01
MSLP
1013.69 1013.82 1013.99 1014.17 1014.35 1014.53 1014.72 1014.94 1015.21 1015.55 1015.93 1016.34 1016.73 1017.08 1017.36 1017.54 1017.65 1017.68 1017.69 1017.71 1017.75 1017.83 1017.96 1018.11 1018.27 1018.40 1018.48 1018.52 1018.51 1018.47 1018.42 1018.36 1018.30 1018.22 1018.12 1017.96 1017.72 1017.40 1017.01 1016.57 1016.12 1015.72 1015.41
1013.87 1014.04 1014.21 1014.37 1014.51 1014.63 1014.77 1014.97 1015.24 1015.61 1016.04 1016.50 1016.94 1017.32 1017.59 1017.73 1017.77 1017.74 1017.67 1017.63 1017.64 1017.73 1017.90 1018.11 1018.33 1018.53 1018.68 1018.76 1018.77 1018.73 1018.67 1018.60 1018.55 1018.49 1018.42 1018.31 1018.13 1017.86 1017.50 1017.06 1016.58 1016.11 1015.69
1014.01 1014.21 1014.40 1014.54 1014.63 1014.70 1014.80 1014.96 1015.23 1015.62 1016.09 1016.61 1017.10 1017.51 1017.79 1017.92 1017.92 1017.82 1017.70 1017.60 1017.58 1017.66 1017.83 1018.07 1018.34 1018.58 1018.77 1018.87 1018.90 1018.87 1018.81 1018.75 1018.72 1018.70 1018.69 1018.66 1018.56 1018.37 1018.07 1017.66 1017.19 1016.68 1016.19
1014.06 1014.28 1014.48 1014.60 1014.66 1014.68 1014.73 1014.86 1015.13 1015.52 1016.03 1016.60 1017.14 1017.60 1017.91 1018.05 1018.04 1017.92 1017.75 1017.62 1017.56 1017.62 1017.78 1018.03 1018.31 1018.56 1018.76 1018.88 1018.91 1018.88 1018.83 1018.79 1018.78 1018.82 1018.88 1018.93 1018.92 1018.83 1018.62 1018.28 1017.84 1017.32 1016.79
1013.97 1014.22 1014.42 1014.53 1014.56 1014.54 1014.55 1014.64 1014.88 1015.28 1015.81 1016.41 1017.01 1017.52 1017.89 1018.07 1018.08 1017.97 1017.80 1017.65 1017.57 1017.60 1017.75 1017.98 1018.24 1018.49 1018.69 1018.79 1018.82 1018.79 1018.75 1018.72 1018.74 1018.82 1018.94 1019.07 1019.16 1019.16 1019.04 1018.78 1018.40 1017.91 1017.37
1013.73 1014.00 1014.20 1014.31 1014.32 1014.27 1014.23 1014.29 1014.50 1014.89 1015.43 1016.06 1016.70 1017.26 1017.69 1017.93 1017.99 1017.92 1017.78 1017.64 1017.56 1017.58 1017.71 1017.91 1018.15 1018.38 1018.55 1018.65 1018.66 1018.63 1018.58 1018.56 1018.60 1018.70 1018.86 1019.05 1019.20 1019.29 1019.25 1019.07 1018.76 1018.33 1017.81
1013.33 1013.61 1013.84 1013.95 1013.96 1013.89 1013.84 1013.86 1014.05 1014.41 1014.93 1015.56 1016.23 1016.84 1017.32 1017.63 1017.76 1017.76 1017.67 1017.56 1017.50 1017.52 1017.63 1017.81 1018.02 1018.22 1018.37 1018.44 1018.44 1018.40 1018.34 1018.32 1018.36 1018.47 1018.64 1018.85 1019.05 1019.18 1019.21 1019.10 1018.86 1018.50 1018.04
1012.76 1013.08 1013.35 1013.51 1013.54 1013.49 1013.43 1013.43 1013.58 1013.91 1014.41 1015.03 1015.69 1016.32 1016.84 1017.21 1017.41 1017.47 1017.44 1017.38 1017.35 1017.38 1017.48 1017.64 1017.83 1018.00 1018.12 1018.18 1018.17 1018.12 1018.06 1018.02 1018.05 1018.14 1018.31 1018.51 1018.70 1018.86 1018.92 1018.87 1018.70 1018.41 1018.02
1012.08 1012.47 1012.80 1013.03 1013.12 1013.11 1013.07 1013.08 1013.21 1013.50 1013.96 1014.53 1015.17 1015.79 1016.32 1016.72 1016.96 1017.08 1017.10 1017.09 1017.09 1017.13 1017.23 1017.38 1017.56 1017.71 1017.82 1017.87 1017.86 1017.80 1017.74 1017.69 1017.70 1017.77 1017.90 1018.06 1018.24 1018.38 1018.45 1018.44 1018.32 1018.10 1017.80
1011.35 1011.82 1012.25 1012.56 1012.74 1012.81 1012.82 1012.85 1012.98 1013.24 1013.64 1014.16 1014.74 1015.32 1015.82 1016.22 1016.48 1016.62 1016.68 1016.71 1016.73 1016.79 1016.89 1017.04 1017.20 1017.34 1017.45 1017.50 1017.50 1017.46 1017.40 1017.35 1017.34 1017.38 1017.47 1017.58 1017.71 1017.83 1017.89 1017.89 1017.81 1017.65 1017.42
1010.64 1011.20 1011.73 1012.15 1012.43 1012.59 1012.67 1012.75 1012.89 1013.13 1013.49 1013.94 1014.45 1014.95 1015.40 1015.76 1016.00 1016.15 1016.22 1016.26 1016.30 1016.37 1016.47 1016.61 1016.77 1016.91 1017.03 1017.09 1017.11 1017.09 1017.05 1017.01 1016.99 1017.00 1017.05 1017.12 1017.20 1017.27 1017.31 1017.30 1017.24 1017.13 1016.97
1010.02 1010.65 1011.26 1011.77 1012.15 1012.40 1012.57 1012.70 1012.87 1013.11 1013.42 1013.81 1014.24 1014.67 1015.04 1015.34 1015.55 1015.68 1015.75 1015.79 1015.83 1015.90 1016.01 1016.14 1016.29 1016.44 1016.56 1016.65 1016.69 1016.70 1016.69 1016.66 1016.65 1016.65 1016.67 1016.70 1016.73 1016.76 1016.76 1016.73 1016.68 1016.59 1016.48
1009.52 1010.18 1010.83 1011.39 1011.83 1012.16 1012.40 1012.60 1012.80 1013.04 1013.34 1013.68 1014.05 1014.40 1014.71 1014.95 1015.12 1015.22 1015.28 1015.32 1015.36 1015.43 1015.53 1015.67 1015.81 1015.96 1016.09 1016.19 1016.26 1016.29 1016.30 1016.30 1016.30 1016.30 1016.30 1016.30 1016.30 1016.28 1016.25 1016.20 1016.13 1016.05 1015.97
1009.17 1009.79 1010.41 1010.96 1011.41 1011.77 1012.06 1012.31 1012.55 1012.82 1013.11 1013.43 1013.76 1014.07 1014.33 1014.53 1014.68 1014.76 1014.82 1014.86 1014.91 1014.98 1015.08 1015.21 1015.35 1015.49 1015.62 1015.72 1015.80 1015.86 1015.89 1015.91 1015.92 1015.93 1015.92 1015.91 1015.87 1015.82 1015.75 1015.67 1015.59 1015.50 1015.42
1008.95 1009.46 1009.97 1010.44 1010.84 1011.18 1011.48 1011.76 1012.03 1012.33 1012.64 1012.97 1013.29 1013.59 1013.84 1014.04 1014.18 1014.28 1014.36 1014.42 1014.48 1014.57 1014.67 1014.79 1014.91 1015.03 1015.15 1015.24 1015.32 1015.38 1015.42 1015.46 1015.48 1015.49 1015.49 1015.46 1015.41 1015.33 1015.23 1015.12 1015.01 1014.90 1014.80
1008.84 1009.16 1009.49 1009.81 1010.11 1010.39 1010.65 1010.93 1011.23 1011.56 1011.91 1012.26 1012.61 1012.93 1013.21 1013.44 1013.62 1013.76 1013.88 1013.97 1014.07 1014.17 1014.28 1014.39 1014.49 1014.59 1014.67 1014.74 1014.79 1014.84 1014.88 1014.91 1014.94 1014.96 1014.96 1014.93 1014.87 1014.78 1014.66 1014.51 1014.37 1014.23 1014.11
1008.80 1008.89 1009.01 1009.14 1009.28 1009.45 1009.66 1009.91 1010.22 1010.57 1010.96 1011.36 1011.76 1012.13 1012.46 1012.75 1012.99 1013.20 1013.37 1013.52 1013.65 1013.78 1013.89 1013.99 1014.06 1014.12 1014.16 1014.18 1014.20 1014.22 1014.24 1014.27 1014.30 1014.32 1014.33 1014.31 1014.25 1014.15 1014.01 1013.85 1013.67 1013.50 1013.36
1008.83 1008.69 1008.58 1008.51 1008.48 1008.53 1008.65 1008.86 1009.15 1009.52 1009.93 1010.38 1010.83 1011.26 1011.66 1012.02 1012.33 1012.60 1012.84 1013.04 1013.21 1013.35 1013.46 1013.53 1013.57 1013.58 1013.57 1013.55 1013.52 1013.50 1013.50 1013.52 1013.55 1013.59 1013.61 1013.60 1013.56 1013.46 1013.32 1013.14 1012.95 1012.75 1012.58
1008.93 1008.59 1008.29 1008.04 1007.87 1007.80 1007.83 1007.98 1008.24 1008.60 1009.03 1009.50 1009.98 1010.46 1010.91 1011.32 1011.69 1012.01 1012.29 1012.52 1012.71 1012.85 1012.95 1012.99 1012.99 1012.95 1012.88 1012.80 1012.73 1012.68 1012.67 1012.69 1012.73 1012.78 1012.83 1012.86 1012.83 1012.76 1012.63 1012.45 1012.25 1012.03 1011.84
1009.13 1008.67 1008.24 1007.87 1007.58 1007.41 1007.37 1007.46 1007.67 1008.00 1008.40 1008.86 1009.35 1009.83 1010.30 1010.73 1011.12 1011.46 1011.75 1011.99 1012.17 1012.28 1012.34 1012.34 1012.28 1012.18 1012.07 1011.95 1011.84 1011.78 1011.76 1011.79 1011.86 1011.95 1012.04 1012.10 1012.12 1012.08 1011.98 1011.82 1011.61 1011.39 1011.17
1009.47 1008.97 1008.49 1008.06 1007.71 1007.48 1007.37 1007.40 1007.55 1007.82 1008.17 1008.59 1009.03 1009.48 1009.91 1010.32 1010.68 1010.99 1011.25 1011.44 1011.57 1011.64 1011.64 1011.57 1011.45 1011.30 1011.14 1010.99 1010.87 1010.80 1010.80 1010.86 1010.97 1011.11 1011.25 1011.38 1011.45 1011.46 1011.39 1011.26 1011.07 1010.84 1010.62
1009.96 1009.50 1009.04 1008.61 1008.25 1007.99 1007.84 1007.81 1007.89 1008.08 1008.35 1008.68 1009.04 1009.41 1009.77 1010.10 1010.38 1010.62 1010.80 1010.92 1010.96 1010.94 1010.86 1010.71 1010.53 1010.33 1010.13 1009.96 1009.84 1009.79 1009.82 1009.92 1010.09 1010.29 1010.50 1010.68 1010.81 1010.87 1010.85 1010.75 1010.58 1010.37 1010.14
1010.60 1010.23 1009.84 1009.46 1009.13 1008.86 1008.68 1008.59 1008.60 1008.69 1008.86 1009.07 1009.32 1009.58 1009.82 1010.04 1010.22 1010.35 1010.42 1010.42 1010.36 1010.23 1010.05 1009.82 1009.57 1009.32 1009.09 1008.92 1008.81 1008.79 1008.86 1009.01 1009.23 1009.49 1009.76 1010.00 1010.18 1010.29 1010.31 1010.24 1010.09 1009.89 1009.67
1011.32 1011.07 1010.77 1010.47 1010.18 1009.92 1009.71 1009.57 1009.50 1009.49 1009.54 1009.64 1009.76 1009.89 1010.01 1010.10 1010.16 1010.16 1010.10 1009.97 1009.79 1009.54 1009.26 1008.94 1008.63 1008.33 1008.08 1007.90 1007.81 1007.82 1007.93 1008.13 1008.40 1008.70 1009.01 1009.29 1009.51 1009.65 1009.70 1009.65 1009.52 1009.34 1009.12
1012.06 1011.91 1011.70 1011.46 1011.21 1010.96 1010.73 1010.53 1010.39 1010.29 1010.23 1010.21 1010.22 1010.23 1010.23 1010.20 1010.13 1010.01 1009.82 1009.57 1009.26 1008.91 1008.52 1008.12 1007.75 1007.41 1007.14 1006.96 1006.88 1006.92 1007.06 1007.29 1007.58 1007.91 1008.24 1008.53 1008.75 1008.90 1008.95 1008.91 1008.80 1008.62 1008.42
1012.70 1012.61 1012.47 1012.27 1012.04 1011.79 1011.53 1011.29 1011.08 1010.91 1010.77 1010.66 1010.57 1010.49 1010.39 1010.26 1010.09 1009.86 1009.56 1009.20 1008.79 1008.33 1007.86 1007.38 1006.95 1006.57 1006.29 1006.11 1006.04 1006.09 1006.24 1006.48 1006.78 1007.10 1007.41 1007.68 1007.88 1008.00 1008.04 1007.98 1007.87 1007.70 1007.50
Thickness
5734 5738 5740 5742 5741 5741 5741 5739 5737 5735 5734 5731 5728 5724 5722 5721 5720 5720 5719 5717 5716 5714 5711 5708 5706 5704 5702 5700 5700 5699 5697 5696 5697 5696 5696 5700 5703 5705 5707 5708 5709 5710 5711
5730 5733 5735 5737 5738 5738 5739 5738 5737 5735 5734 5732 5729 5726 5724 5721 5719 5718 5716 5715 5713 5711 5708 5705 5702 5700 5698 5696 5694 5693 5690 5689 5690 5687 5684 5683 5688 5695 5700 5701 5702 5703 5705
5731 5732 5733 5735 5736 5737 5737 5739 5737 5736 5734 5733 5729 5726 5722 5719 5716 5714 5713 5712 5711 5709 5706 5703 5700 5698 5695 5691 5690 5688 5685 5682 5683 5683 5679 5674 5672 5679 5688 5691 5693 5695 5697
5735 5735 5735 5736 5737 5739 5740 5739 5737 5735 5734 5732 5728 5724 5719 5715 5714 5713 5711 5710 5709 5707 5704 5701 5698 5695 5692 5689 5687 5685 5682 5679 5676 5677 5676 5675 5673 5670 5672 5680 5684 5687 5689
5740 5738 5739 5741 5742 5743 5742 5740 5738 5735 5734 5732 5729 5724 5719 5716 5714 5712 5710 5708 5707 5705 5702 5698 5695 5692 5689 5686 5684 5681 5679 5676 5673 5671 5670 5670 5669 5668 5665 5665 5671 5677 5681
5744 5743 5745 5744 5743 5744 5743 5741 5738 5735 5734 5731 5728 5724 5720 5716 5713 5710 5707 5705 5703 5702 5699 5696 5693 5689 5686 5684 5681 5679 5676 5673 5670 5668 5666 5664 5662 5661 5659 5658 5659 5663 5670
5748 5746 5745 5744 5744 5744 5744 5743 5739 5736 5734 5731 5728 5725 5721 5717 5713 5710 5706 5703 5700 5698 5696 5694 5691 5688 5685 5682 5679 5676 5673 5670 5667 5664 5662 5660 5658 5657 5655 5653 5652 5654 5659
5753 5752 5751 5750 5749 5748 5747 5744 5740 5737 5734 5731 5728 5725 5722 5718 5713 5710 5706 5702 5699 5697 5695 5692 5689 5686 5683 5680 5676 5673 5670 5667 5664 5661 5658 5656 5654 5653 5651 5648 5646 5645 5646
5758 5757 5756 5755 5754 5752 5750 5747 5743 5739 5735 5732 5728 5724 5721 5717 5713 5709 5706 5702 5700 5697 5694 5691 5687 5684 5681 5677 5673 5669 5666 5663 5660 5657 5654 5651 5649 5648 5646 5644 5641 5638 5636
5762 5761 5760 5759 5758 5756 5753 5750 5746 5741 5737 5732 5728 5725 5721 5717 5713 5709 5705 5701 5698 5695 5692 5688 5685 5681 5678 5674 5670 5666 5663 5659 5656 5653 5649 5646 5644 5641 5639 5637 5634 5632 5629
5766 5765 5764 5763 5760 5756 5753 5748 5744 5740 5735 5732 5728 5724 5720 5716 5712 5707 5704 5700 5697 5693 5689 5686 5682 5678 5674 5671 5667 5663 5659 5655 5651 5648 5645 5641 5639 5634 5632 5629 5626 5623 5621
5770 5768 5766 5762 5758 5755 5752 5748 5744 5740 5736 5733 5728 5723 5719 5715 5710 5706 5703 5699 5695 5691 5688 5684 5679 5675 5672 5668 5663 5659 5656 5651 5646 5643 5639 5635 5632 5628 5624 5620 5617 5614 5613
5767 5765 5762 5760 5757 5754 5751 5748 5744 5741 5737 5732 5727 5721 5717 5713 5709 5705 5701 5697 5693 5689 5685 5681 5676 5672 5669 5665 5660 5656 5652 5647 5643 5638 5634 5630 5625 5620 5616 5613 5609 5606 5606
5766 5762 5759 5758 5757 5754 5751 5747 5743 5741 5736 5731 5725 5720 5716 5712 5708 5703 5699 5695 5691 5687 5682 5678 5673 5669 5665 5661 5657 5652 5648 5643 5638 5634 5629 5624 5619 5614 5610 5606 5602 5599 5596
5762 5761 5758 5755 5753 5751 5748 5745 5743 5739 5736 5729 5724 5720 5716 5711 5706 5701 5697 5693 5688 5684 5679 5674 5669 5665 5661 5658 5653 5648 5643 5637 5632 5628 5623 5619 5615 5610 5605 5601 5596 5592 5588
5761 5761 5758 5755 5752 5750 5747 5745 5741 5739 5734 5728 5724 5720 5714 5708 5703 5699 5694 5689 5684 5680 5675 5670 5666 5661 5658 5655 5650 5644 5638 5632 5626 5621 5617 5612 5608 5605 5601 5597 5593 5589 5583
5761 5759 5758 5757 5755 5753 5751 5745 5743 5738 5732 5727 5723 5717 5711 5706 5701 5697 5691 5685 5680 5676 5671 5667 5662 5657 5653 5649 5645 5640 5633 5627 5621 5616 5611 5607 5604 5599 5594 5591 5588 5585 5582
5756 5756 5755 5755 5755 5753 5750 5747 5741 5734 5729 5723 5719 5714 5709 5704 5698 5692 5687 5683 5677 5672 5667 5663 5658 5653 5650 5645 5640 5635 5628 5622 5616 5611 5606 5601 5597 5593 5588 5585 5581 5579 5576
5750 5751 5752 5752 5750 5747 5745 5740 5735 5730 5724 5719 5715 5712 5707 5701 5694 5688 5684 5679 5673 5668 5663 5659 5654 5649 5645 5641 5636 5630 5623 5616 5612 5607 5602 5596 5592 5589 5584 5578 5575 5573 5571
5742 5742 5743 5743 5741 5741 5739 5733 5727 5722 5719 5718 5714 5710 5704 5697 5691 5686 5681 5675 5669 5664 5659 5654 5649 5644 5641 5637 5631 5625 5617 5611 5607 5602 5597 5593 5588 5584 5579 5573 5570 5567 5566
5730 5731 5731 5729 5729 5730 5728 5722 5718 5715 5716 5713 5709 5703 5698 5692 5687 5681 5675 5669 5663 5658 5653 5648 5644 5639 5636 5632 5627 5621 5613 5607 5602 5596 5592 5588 5584 5579 5575 5570 5566 5564 5562
5715 5716 5715 5713 5715 5715 5712 5708 5705 5707 5706 5702 5697 5693 5689 5684 5680 5672 5667 5661 5655 5649 5645 5640 5637 5634 5630 5626 5622 5617 5611 5606 5598 5593 5589 5585 5580 5575 5570 5566 5562 5559 5555
5699 5699 5698 5697 5697 5697 5696 5691 5690 5691 5689 5686 5682 5679 5675 5671 5666 5661 5656 5651 5646 5640 5637 5632 5630 5628 5625 5621 5617 5613 5608 5602 5595 5591 5586 5580 5575 5569 5564 5561 5558 5554 5549
5685 5684 5683 5681 5679 5679 5678 5675 5675 5674 5672 5667 5664 5661 5658 5655 5652 5649 5645 5640 5636 5632 5628 5625 5622 5621 5618 5615 5611 5607 5602 5597 5590 5584 5579 5574 5569 5563 5560 5557 5553 5550 5546
5671 5670 5667 5665 5663 5663 5662 5661 5659 5658 5654 5650 5647 5645 5642 5639 5637 5635 5633 5630 5629 5625 5621 5619 5616 5612 5611 5611 5606 5600 5595 5590 5584 5576 5569 5563 5559 5556 5554 5551 5549 5546 5543
5657 5655 5653 5651 5649 5648 5646 5645 5644 5642 5637 5633 5630 5628 5626 5624 5622 5620 5621 5621 5618 5616 5613 5610 5607 5607 5605 5603 5598 5592 5588 5582 5575 5565 5560 5557 5554 5552 5550 5548 5546 5544 5542